Namest Nad Oslav, Czech Republic

5:12 PM CET on December 13, 2019 (GMT +0100)
Namest

Weather History for LKNA - August, 2019

Change the Weather History Date:

Saturday, August 31, 2019

  Actual Average Record
Temperature  
Mean Temperature 74 °F -  
Max Temperature 84 °F - - ()
Min Temperature 63 °F - - ()
Cooling Degree Days 8    
Growing Degree Days 24 (Base 50)    
Moisture  
Dew Point 59 °F    
Average Humidity 60    
Maximum Humidity 88    
Minimum Humidity 31    
Precipitation  
Precipitation 0.00 in - - ()
Sea Level Pressure  
Sea Level Pressure 30.08 in    
Wind  
Wind Speed 6 mph ()    
Max Wind Speed 13 mph    
Max Gust Speed -    
Visibility 11.7 miles    
Events      
T = Trace of Precipitation, MM = Missing Value Source: Averaged Metar Reports

Daily Weather History Graph

Daily Weather History Graph

Search for Another Location

Airport or City:

Astronomy

Aug. 31, 2019 Rise Set
Actual Time 6:09 AM CEST 7:41 PM CEST
Civil Twilight 5:36 AM CEST 8:14 PM CEST
Nautical Twilight 4:55 AM CEST 8:54 PM CEST
Astronomical Twilight 4:11 AM CEST 9:38 PM CEST
Moon 7:04 AM CEST (8/31) 8:39 PM CEST (8/31)
Length of Visible Light 14h 37m
Length of Day
13h 31m
New Moon, 2% of the Moon is Illuminated
Aug 31
New Moon
Sep 6
First Quarter
Sep 14
Full
Sep 22
Last Quarter
Sep 28
New

Hourly Weather History & Observations

Time (CEST) Temp. Heat Index Dew Point Humidity Pressure Visibility Wind Dir Wind Speed Gust Speed Precip Events Conditions
12:00 AM 70 °F - 57 °F 55% 30.15 in 12 mi North 4.5 mph - -   Scattered Clouds
1:00 AM 69 °F - 58 °F 60% 30.14 in 12 mi NW 4.5 mph - -  
1:00 AM 68.0 °F - 59.0 °F 73% 30.18 in - NNW 5.8 mph - N/A   Clear
2:00 AM 69 °F - 59 °F 61% 30.14 in 12 mi NNW 4.5 mph - -  
2:00 AM 68.0 °F - 59.0 °F 73% 30.18 in - NNW 5.8 mph - N/A   Clear
3:00 AM 68 °F - 59 °F 65% 30.14 in 12 mi North 6.7 mph - -  
3:00 AM 66.2 °F - 60.8 °F 83% 30.18 in - NNW 5.8 mph - N/A   Clear
4:00 AM 65 °F - 59 °F 74% 30.14 in 12 mi North 4.5 mph - -  
4:00 AM 62.6 °F - 59.0 °F 88% 30.15 in - North 5.8 mph - N/A   Clear
5:00 AM 64.4 °F - 59.0 °F 83% 30.15 in - North 5.8 mph - N/A   Clear
6:00 AM 62.6 °F - 59.0 °F 88% 30.15 in - NNW 4.6 mph - N/A   Clear
7:00 AM 65 °F - 59 °F 75% 30.13 in 6 mi WNW 2.2 mph - -  
7:00 AM 62.6 °F - 59.0 °F 88% 30.15 in - North 4.6 mph - N/A   Clear
8:00 AM 66 °F - 60 °F 74% 30.12 in 6 mi North 4.5 mph - -  
8:00 AM 64.4 °F - 60.8 °F 88% 30.15 in - North 4.6 mph - N/A   Clear
9:00 AM 70 °F - 60 °F 64% 30.10 in 6 mi NE 4.5 mph - -  
9:00 AM 69.8 °F - 62.6 °F 78% 30.15 in - NE 4.6 mph - N/A   Clear
10:00 AM 73 °F - 61 °F 57% 30.08 in 6 mi ESE 2.2 mph - -  
10:00 AM 73.4 °F - 60.8 °F 65% 30.15 in - ESE 4.6 mph - N/A   Clear
11:00 AM 77.0 °F - 62.6 °F 61% 30.12 in - ESE 3.5 mph - N/A   Clear
12:00 PM 78 °F - 61 °F 45% 30.06 in 16 mi ESE 8.9 mph - -   Clear
1:00 PM 80 °F - 59 °F 39% 30.04 in 16 mi SSE 11.2 mph - -   Scattered Clouds
1:00 PM 80.6 °F 81.8 °F 62.6 °F 54% 30.12 in 6.2 mi ESE 8.1 mph - N/A   Partly Cloudy
2:00 PM 81 °F - 59 °F 36% 30.01 in 16 mi ESE 8.9 mph - -   Scattered Clouds
2:00 PM 82.4 °F 82.5 °F 59.0 °F 45% 30.09 in - SE 10.4 mph - N/A   Clear
3:00 PM 82.4 °F 82.0 °F 57.2 °F 42% 30.06 in - SE 10.4 mph - N/A   Clear
4:00 PM 83 °F - 58 °F 32% 29.96 in 16 mi ESE 8.9 mph - -   Scattered Clouds
4:00 PM 82.4 °F 82.5 °F 59.0 °F 45% 30.06 in - SE 8.1 mph - N/A   Clear
5:00 PM 83 °F - 57 °F 31% 29.94 in 16 mi ESE 13.4 mph - -   Scattered Clouds
5:00 PM 84.2 °F 83.5 °F 57.2 °F 40% 30.04 in - ESE 11.5 mph - N/A   Clear
6:00 PM 82 °F - 58 °F 33% 29.92 in 19 mi ESE 13.4 mph - -   Scattered Clouds
6:00 PM 82.4 °F 82.0 °F 57.2 °F 42% 30.01 in - East 10.4 mph - N/A   Clear
7:00 PM 80.6 °F 80.8 °F 57.2 °F 45% 30.01 in - ESE 11.5 mph - N/A   Clear
8:00 PM 77.0 °F - 59.0 °F 54% 30.01 in - ESE 6.9 mph - N/A   Clear
10:00 PM 74 °F - 59 °F 49% 29.94 in 9 mi ESE 8.9 mph - -  
10:00 PM 73.4 °F - 59.0 °F 61% 30.01 in - SE 9.2 mph - N/A   Clear
11:00 PM 73.4 °F - 59.0 °F 61% 30.01 in - ESE 8.1 mph - N/A   Clear